CW0351 Weather Reports


Display with metric or nautical units.
time (UTC)temp
F
wind
direction
speed
MPH
gust
MPH
rain 1hr
in
rain 24hr
in
rain mn
in
humidity
%
barometer
mb
20260510120051 52 0 0.0 0.0 0.00 0.00 0.00 98 1012.9
20260510114556 52 0 0.0 1.0 0.00 0.00 0.00 98 1012.7
20260510113051 52 0 0.0 0.0 0.00 0.00 0.00 98 1012.5
20260510111549 51 0 0.0 0.0 0.00 0.00 0.00 98 1012.4
20260510110058 51 0 0.0 0.0 0.00 0.00 0.00 98 1012.4
20260510104601 51 0 0.0 0.0 0.00 0.00 0.00 98 1012.3
20260510103058 51 0 0.0 0.0 0.00 0.00 0.00 98 1012.1
20260510101603 51 0 0.0 0.0 0.00 0.00 0.00 98 1011.9
20260510100055 50 0 0.0 0.0 0.00 0.00 0.00 98 1012.0
20260510094553 50 0 0.0 0.0 0.00 0.00 0.00 98 1011.8
20260510093054 50 0 0.0 0.0 0.00 0.00 0.00 97 1011.7
20260510091557 51 0 0.0 0.0 0.00 0.00 0.00 98 1011.5
20260510090053 51 0 0.0 0.0 0.00 0.00 0.00 98 1011.6
20260510084552 51 0 0.0 0.0 0.00 0.00 0.00 97 1011.9
20260510083052 50 0 1.0 4.0 0.00 0.00 0.00 98 1011.9
20260510081556 50 0 0.0 0.0 0.00 0.00 0.00 98 1011.9
20260510080049 50 56 0.0 0.0 0.00 0.00 0.00 98 1011.7
20260510074553 49 0 0.0 0.0 0.00 0.00 0.00 98 1011.1
20260510073103 49 0 0.0 0.0 0.00 0.00 0.00 97 1011.1
20260510071559 50 0 0.0 0.0 0.00 0.00 0.00 97 1011.0
20260510070054 50 0 0.0 0.0 0.00 0.00 0.00 97 1011.3
20260510064555 51 0 0.0 0.0 0.00 0.00 0.00 98 1011.2
20260510063104 50 0 0.0 3.0 0.00 0.00 0.00 97 1011.0
20260510061602 50 0 1.0 4.0 0.00 0.00 0.00 97 1010.6
20260510060054 50 0 0.0 0.0 0.00 0.00 0.00 97 1010.8
20260510054601 50 0 0.0 2.0 0.00 0.00 0.00 97 1011.0
20260510053054 50 0 0.0 0.0 0.00 0.00 0.00 97 1011.0
20260510051551 50 0 0.0 0.0 0.00 0.00 0.00 97 1011.0
20260510050056 51 0 0.0 0.0 0.00 0.00 0.00 96 1011.1
20260510044553 51 0 0.0 0.0 0.00 0.00 0.00 96 1011.3
20260510043056 51 0 0.0 0.0 0.00 0.00 0.00 96 1011.3
20260510041617 51 0 0.0 0.0 0.00 0.00 0.00 96 1011.4
20260510040059 52 0 0.0 0.0 0.00 0.00 0.00 96 1011.4
20260510034558 52 0 0.0 0.0 0.00 0.00 0.00 96 1011.3
20260510033106 52 0 0.0 0.0 0.00 0.00 0.00 96 1011.1
20260510031555 52 0 0.0 0.0 0.00 0.00 0.00 96 1011.0
20260510030051 52 0 0.0 0.0 0.00 0.00 0.00 95 1011.0
20260510024608 51 0 0.0 0.0 0.00 0.00 0.00 95 1011.0
20260510023057 50 0 0.0 0.0 0.00 0.00 0.00 94 1010.8
20260510021552 51 0 0.0 0.0 0.00 0.00 0.00 94 1010.8
20260510020052 51 0 0.0 0.0 0.00 0.00 0.00 94 1010.7
20260510014612 51 0 0.0 0.0 0.00 0.00 0.00 93 1010.8
20260510013103 51 0 0.0 0.0 0.00 0.00 0.00 93 1010.8
20260510011556 51 0 0.0 0.0 0.00 0.00 0.00 92 1010.7
20260510010056 52 0 0.0 0.0 0.00 0.00 0.00 91 1010.5
20260510004600 52 0 0.0 0.0 0.00 0.00 0.00 91 1010.4
20260510003053 53 0 0.0 0.0 0.00 0.00 0.00 90 1010.4
20260510001551 54 0 0.0 0.0 0.00 0.00 0.00 90 1010.1
20260510000054 54 0 0.0 0.0 0.00 0.00 0.00 89 1010.2
20260509234554 55 0 0.0 0.0 0.00 0.00 0.00 88 1010.3
20260509233053 55 0 0.0 0.0 0.00 0.00 0.00 87 1010.4
20260509231606 56 0 0.0 0.0 0.00 0.00 0.00 87 1010.2
20260509230054 57 0 0.0 2.0 0.00 0.00 0.00 88 1010.2
20260509224555 57 0 0.0 0.0 0.00 0.00 0.00 88 1010.3
20260509223056 57 105 0.0 4.0 0.00 0.00 0.00 87 1010.3
20260509221550 58 0 0.0 4.0 0.00 0.00 0.00 86 1010.0
20260509220052 58 0 0.0 1.0 0.00 0.00 0.00 87 1010.1
20260509214553 58 0 0.0 3.0 0.00 0.00 0.00 87 1010.2
20260509213050 57 0 0.0 0.0 0.00 0.00 0.00 87 1010.1
20260509211600 58 0 0.0 0.0 0.00 0.00 0.00 89 1010.3
20260509210106 57 0 0.0 0.0 0.00 0.00 0.00 91 1010.2
20260509204558 56 0 0.0 0.0 0.00 0.00 0.00 91 1010.2
20260509203101 56 0 0.0 0.0 0.00 0.00 0.00 91 1010.1
20260509201553 56 0 0.0 0.0 0.00 0.00 0.00 90 1010.3
20260509200057 55 0 0.0 0.0 0.00 0.00 0.00 90 1010.4
20260509194603 56 0 0.0 1.0 0.00 0.00 0.00 90 1010.6
20260509193058 56 0 1.0 6.0 0.00 0.00 0.00 89 1010.9
20260509191557 56 0 0.0 3.0 0.00 0.00 0.00 89 1011.1
20260509190054 56 0 0.0 0.0 0.00 0.00 0.00 89 1011.4
20260509184551 56 0 0.0 0.0 0.00 0.00 0.00 89 1011.3
20260509183055 56 0 0.0 6.0 0.00 0.00 0.00 88 1011.4
20260509181549 57 0 0.0 0.0 0.00 0.00 0.00 87 1011.6
20260509180051 57 0 0.0 5.0 0.00 0.00 0.00 86 1011.6
20260509174553 57 0 0.0 0.0 0.00 0.00 0.00 86 1011.6
20260509173115 57 0 0.0 2.0 0.00 0.00 0.00 85 1011.2
20260509171555 58 0 0.0 0.0 0.00 0.00 0.00 83 1011.4
20260509170056 58 0 0.0 0.0 0.00 0.00 0.00 82 1011.5
20260509164558 58 0 0.0 3.0 0.00 0.00 0.00 80 1011.6
20260509163053 59 0 0.0 6.0 0.00 0.00 0.00 75 1011.5
20260509161555 60 204 3.0 9.0 0.00 0.00 0.00 71 1011.9
20260509160054 62 252 2.0 10.0 0.00 0.00 0.00 69 1011.7
20260509154555 62 240 1.0 8.0 0.00 0.00 0.00 64 1012.1
20260509153059 62 206 3.0 11.0 0.00 0.00 0.00 63 1012.0
20260509151616 62 0 3.0 8.0 0.00 0.00 0.00 66 1012.1
20260509150055 61 222 1.0 6.0 0.00 0.00 0.00 69 1012.1
20260509144552 61 229 0.0 7.0 0.00 0.00 0.00 70 1011.9
20260509143103 60 0 1.0 6.0 0.00 0.00 0.00 70 1011.9
20260509141554 60 218 1.0 6.0 0.00 0.00 0.00 70 1011.8
20260509140056 59 179 2.0 6.0 0.00 0.00 0.00 72 1011.6
20260509134555 59 206 1.0 5.0 0.00 0.00 0.00 74 1011.8
20260509133104 58 194 0.0 4.0 0.00 0.00 0.00 75 1011.6
20260509131604 58 0 0.0 3.0 0.00 0.00 0.00 76 1011.8
20260509130128 57 0 0.0 4.0 0.00 0.00 0.00 78 1011.8
20260509124552 56 0 0.0 1.0 0.00 0.00 0.00 79 1011.8
20260509123119 55 0 0.0 0.0 0.00 0.00 0.00 81 1011.9
20260509121550 54 0 0.0 0.0 0.00 0.00 0.00 81 1011.9
20260509120054 53 0 0.0 0.0 0.00 0.00 0.00 82 1011.9
20260509114627 52 0 0.0 0.0 0.00 0.00 0.00 82 1011.9
20260509113126 52 0 0.0 0.0 0.00 0.00 0.00 82 1011.8
20260509111554 52 0 0.0 0.0 0.00 0.00 0.00 82 1011.7
20260509104551 52 0 0.0 0.0 0.00 0.00 0.00 81 1011.8
20260509103103 51 0 0.0 0.0 0.00 0.00 0.00 81 1011.7
20260509101559 52 0 0.0 0.0 0.00 0.00 0.00 81 1011.6
20260509100054 52 0 0.0 0.0 0.00 0.00 0.00 80 1011.6
20260509094601 52 0 0.0 0.0 0.00 0.00 0.00 78 1011.6
20260509093049 53 0 0.0 0.0 0.00 0.00 0.00 77 1011.6
20260509091554 53 0 0.0 0.0 0.00 0.00 0.00 76 1011.6
20260509090054 53 0 0.0 0.0 0.00 0.00 0.00 74 1011.8
20260509084602 53 0 0.0 0.0 0.00 0.00 0.00 74 1011.9
20260509083051 53 0 0.0 0.0 0.00 0.00 0.00 74 1011.9
20260509081557 52 0 0.0 0.0 0.00 0.00 0.00 75 1011.9
20260509080059 52 0 0.0 0.0 0.00 0.00 0.00 76 1012.0
20260509074555 51 0 0.0 0.0 0.00 0.00 0.00 76 1012.1
20260509073051 52 0 0.0 0.0 0.00 0.00 0.00 74 1012.0
20260509071551 52 0 0.0 0.0 0.00 0.00 0.00 72 1011.9
20260509070054 52 0 0.0 0.0 0.00 0.00 0.00 72 1012.0
20260509064558 52 0 0.0 0.0 0.00 0.00 0.00 72 1012.1
20260509063051 52 0 0.0 0.0 0.00 0.00 0.00 74 1012.2
20260509061605 53 0 0.0 0.0 0.00 0.00 0.00 72 1012.4
20260509060054 53 0 0.0 0.0 0.00 0.00 0.00 73 1012.7
20260509054608 53 0 0.0 0.0 0.00 0.00 0.00 74 1012.8
20260509053101 54 0 0.0 0.0 0.00 0.00 0.00 71 1012.8
20260509051604 54 0 0.0 0.0 0.00 0.00 0.00 72 1013.0
20260509050053 54 0 0.0 0.0 0.00 0.00 0.00 72 1012.9
20260509044602 54 0 0.0 0.0 0.00 0.00 0.00 71 1012.8
20260509043050 54 0 0.0 0.0 0.00 0.00 0.00 70 1012.9
20260509041550 54 0 0.0 0.0 0.00 0.00 0.00 70 1013.0
20260509040055 55 0 0.0 0.0 0.00 0.00 0.00 66 1013.1
20260509034548 55 0 0.0 0.0 0.00 0.00 0.00 66 1013.1
20260509033050 55 0 0.0 0.0 0.00 0.00 0.00 69 1013.2
20260509031605 55 0 0.0 0.0 0.00 0.00 0.00 66 1013.0
20260509030053 55 0 0.0 0.0 0.00 0.00 0.00 65 1012.9
20260509024553 55 0 0.0 0.0 0.00 0.00 0.00 64 1013.0
20260509023103 56 0 0.0 0.0 0.00 0.00 0.00 63 1013.0
20260509021551 56 0 0.0 0.0 0.00 0.00 0.00 60 1013.0
20260509020053 56 0 0.0 0.0 0.00 0.00 0.00 59 1012.8
20260509014554 57 0 0.0 0.0 0.00 0.00 0.00 57 1012.5
20260509013050 58 0 0.0 0.0 0.00 0.00 0.00 54 1012.5
20260509011553 58 0 0.0 0.0 0.00 0.00 0.00 56 1012.4
20260509004557 59 0 0.0 0.0 0.00 0.00 0.00 56 1011.9
20260509003055 59 0 0.0 0.0 0.00 0.00 0.00 52 1011.6
20260509001557 59 0 0.0 0.0 0.00 0.00 0.00 49 1011.5